TimeCST,TemperatureF,Dew PointF,Humidity,Sea Level PressureIn,VisibilityMPH,Wind Direction,Wind SpeedMPH,Gust SpeedMPH,PrecipitationIn,Events,Conditions,WindDirDegrees,DateUTC
12:00 AM,64.4,62.6,94,30.30,6.2,North,4.6,-,N/A,,Scattered Clouds,360,2013-08-10 06:00:00
1:00 AM,62.6,60.8,94,30.27,6.2,North,5.8,-,N/A,,Scattered Clouds,10,2013-08-10 07:00:00
2:00 AM,62.6,60.8,94,30.24,6.2,NNE,11.5,-,N/A,,Scattered Clouds,20,2013-08-10 08:00:00
3:00 AM,62.6,60.8,94,30.24,6.2,NNE,6.9,-,N/A,,Scattered Clouds,30,2013-08-10 09:00:00
4:00 AM,60.8,59.0,94,30.24,6.2,NE,6.9,-,N/A,,Scattered Clouds,40,2013-08-10 10:00:00
5:00 AM,60.8,59.0,94,30.24,-9999.0,NNE,6.9,-,N/A,,Clear,30,2013-08-10 11:00:00
6:00 AM,62,59,85,29.95,25,NNE,6.9,,,,Overcast,30,2013-08-10 12:00:00
6:00 AM,60.8,59.0,94,30.24,6.2,NNE,6.9,-,N/A,,Mostly Cloudy,30,2013-08-10 12:00:00
7:00 AM,62.6,59.0,88,30.27,6.2,NNE,9.2,-,N/A,,Partly Cloudy,20,2013-08-10 13:00:00
9:00 AM,69.8,59.0,68,30.27,6.2,North,6.9,-,N/A,,Partly Cloudy,10,2013-08-10 15:00:00
10:00 AM,73.4,60.8,65,30.27,6.2,NNE,9.2,-,N/A,,Scattered Clouds,30,2013-08-10 16:00:00
11:00 AM,75.2,60.8,61,30.27,6.2,North,9.2,-,N/A,,Mostly Cloudy,360,2013-08-10 17:00:00
12:00 PM,76,62,53,29.93,25,North,9.2,,,,Overcast,0,2013-08-10 18:00:00
12:00 PM,77.0,62.6,61,30.27,6.2,North,9.2,-,N/A,,Scattered Clouds,360,2013-08-10 18:00:00
1:00 PM,77.0,62.6,61,30.24,6.2,North,11.5,-,N/A,,Partly Cloudy,360,2013-08-10 19:00:00
2:00 PM,77.0,60.8,57,30.21,6.2,North,9.2,-,N/A,,Scattered Clouds,360,2013-08-10 20:00:00
2:10 PM,-9999,-9999,N/A,-9999,4.3,NNE,9.2,-,N/A,Thunderstorm,Thunderstorm,30,2013-08-10 20:10:00
2:30 PM,-9999,-9999,N/A,-9999,4.3,SSE,9.2,-,N/A,Thunderstorm,Thunderstorm,160,2013-08-10 20:30:00
2:42 PM,-9999,-9999,N/A,-9999,4.3,South,11.5,-,N/A,Rain-Thunderstorm,Light Thunderstorms and Rain,180,2013-08-10 20:42:00
3:00 PM,69.8,66.2,88,30.21,6.2,South,9.2,-,N/A,Thunderstorm,Thunderstorm,180,2013-08-10 21:00:00
3:30 PM,-9999,-9999,N/A,-9999,3.7,South,6.9,-,N/A,Thunderstorm,Thunderstorm,180,2013-08-10 21:30:00
4:00 PM,68.0,62.6,83,30.21,3.7,North,-9999.0,-,N/A,Thunderstorm,Thunderstorm,0,2013-08-10 22:00:00
5:00 PM,64.4,62.6,94,30.21,6.2,South,6.9,-,N/A,,Mostly Cloudy,180,2013-08-10 23:00:00
6:00 PM,64.4,62.6,94,30.21,6.2,South,6.9,-,N/A,,Mostly Cloudy,180,2013-08-11 00:00:00
7:00 PM,64.4,60.8,88,30.24,6.2,SW,4.6,-,N/A,,Mostly Cloudy,220,2013-08-11 01:00:00
8:00 PM,64.4,62.6,94,30.27,6.2,Calm,Calm,-,N/A,,Mostly Cloudy,0,2013-08-11 02:00:00
9:00 PM,64.4,62.6,94,30.30,-9999.0,Calm,Calm,-,N/A,,Clear,0,2013-08-11 03:00:00
10:00 PM,64.4,62.6,94,30.30,6.2,NNE,4.6,-,N/A,,Mostly Cloudy,20,2013-08-11 04:00:00
11:00 PM,66.2,62.6,88,30.30,6.2,North,9.2,-,N/A,,Scattered Clouds,360,2013-08-11 05:00:00